Location: Quebec
(46.8000°N, 71.2500°W)
Time: 23:32:49
(UTC-04:00)

Envisat - Pass Details

Date: 15 October 2017
Orbit: 764 x 766 km, 98.2° (Epoch: 19 October)

Event Time Altitude Azimuth Distance (km) Brightness Sun altitude
Exits shadow 21:23:15 30° 271° (W) 1,356 4.6 -35.1°
Drops below altitude 10° 21:27:28 10° 326° (NNW) 2,311 6.1 -35.8°
Sets 21:30:04 0° 338° (NNW) 3,242 6.9 -36.1°
